Time,TemperatureF,DewpointF,PressureIn,WindDirection,WindDirectionDegrees,WindSpeedMPH,WindSpeedGustMPH,Humidity,HourlyPrecipIn,Conditions,Clouds,dailyrainin,SolarRadiationWatts/m^2,SoftwareType,DateUTC
2013-12-21 00:00:00,28.4,27.2,29.87,West,265,6.0,7.0,95,0.00,,,0.00,0,Wunderground v.1.15,2013-12-21 06:00:00,
2013-12-21 00:05:00,28.3,27.1,29.86,West,269,6.0,7.0,95,0.00,,,0.00,0,Wunderground v.1.15,2013-12-21 06:05:00,
2013-12-21 00:15:00,28.3,27.1,29.86,West,276,6.0,9.0,95,0.00,,,0.00,0,Wunderground v.1.15,2013-12-21 06:15:00,
2013-12-21 00:20:00,28.2,27.0,29.85,WNW,284,6.0,6.0,95,0.00,,,0.00,0,Wunderground v.1.15,2013-12-21 06:20:00,
2013-12-21 00:25:00,28.1,26.9,29.84,WNW,288,7.0,8.0,95,0.00,,,0.00,0,Wunderground v.1.15,2013-12-21 06:25:00,
2013-12-21 00:30:00,28.1,26.9,29.84,WNW,288,6.0,6.0,95,0.00,,,0.00,0,Wunderground v.1.15,2013-12-21 06:30:00,
2013-12-21 00:35:00,28.1,26.9,29.84,WNW,288,6.0,6.0,95,0.00,,,0.00,0,Wunderground v.1.15,2013-12-21 06:35:00,
2013-12-21 00:45:00,28.2,27.0,29.85,WNW,298,6.0,11.0,95,0.00,,,0.00,0,Wunderground v.1.15,2013-12-21 06:45:00,
2013-12-21 00:50:00,28.1,26.9,29.86,WNW,292,8.0,8.0,95,0.00,,,0.00,0,Wunderground v.1.15,2013-12-21 06:50:00,
2013-12-21 00:55:00,28.1,26.9,29.88,WNW,285,8.0,8.0,95,0.00,,,0.00,0,Wunderground v.1.15,2013-12-21 06:55:00,
2013-12-21 01:00:00,28.2,27.0,29.88,West,281,8.0,8.0,95,0.00,,,0.00,0,Wunderground v.1.15,2013-12-21 07:00:00,
2013-12-21 01:05:00,28.2,27.0,29.88,West,277,8.0,9.0,95,0.00,,,0.00,0,Wunderground v.1.15,2013-12-21 07:05:00,
2013-12-21 01:10:00,28.2,27.0,29.89,WNW,284,8.0,10.0,95,0.00,,,0.00,0,Wunderground v.1.15,2013-12-21 07:10:00,
2013-12-21 01:20:00,28.1,26.9,29.89,WNW,289,8.0,10.0,95,0.00,,,0.00,0,Wunderground v.1.15,2013-12-21 07:20:00,
2013-12-21 01:25:00,28.2,27.0,29.89,WNW,285,9.0,10.0,95,0.00,,,0.00,0,Wunderground v.1.15,2013-12-21 07:25:00,
2013-12-21 01:30:00,28.1,26.9,29.89,WNW,291,9.0,10.0,95,0.00,,,0.00,0,Wunderground v.1.15,2013-12-21 07:30:00,
2013-12-21 01:35:00,28.1,26.9,29.89,WNW,292,9.0,10.0,95,0.00,,,0.00,0,Wunderground v.1.15,2013-12-21 07:35:00,
2013-12-21 01:40:00,28.1,26.9,29.89,WNW,296,9.0,9.0,95,0.00,,,0.00,0,Wunderground v.1.15,2013-12-21 07:40:00,
2013-12-21 01:50:00,28.1,26.6,29.90,WNW,293,9.0,9.0,94,0.00,,,0.00,0,Wunderground v.1.15,2013-12-21 07:50:00,
2013-12-21 01:55:00,28.1,26.6,29.88,WNW,294,8.0,9.0,94,0.00,,,0.00,0,Wunderground v.1.15,2013-12-21 07:55:00,
2013-12-21 02:00:00,28.0,26.5,29.87,WNW,297,6.0,9.0,94,0.00,,,0.00,0,Wunderground v.1.15,2013-12-21 08:00:00,
2013-12-21 02:05:00,28.0,26.5,29.86,WNW,300,7.0,9.0,94,0.00,,,0.00,0,Wunderground v.1.15,2013-12-21 08:05:00,
2013-12-21 02:10:00,28.0,26.5,29.86,WNW,300,8.0,8.0,94,0.00,,,0.00,0,Wunderground v.1.15,2013-12-21 08:10:00,
2013-12-21 02:15:00,28.0,26.5,29.86,NW,304,8.0,10.0,94,0.00,,,0.00,0,Wunderground v.1.15,2013-12-21 08:15:00,
2013-12-21 02:25:00,28.0,26.5,29.83,NW,313,10.0,10.0,94,0.00,,,0.00,0,Wunderground v.1.15,2013-12-21 08:25:00,
2013-12-21 02:30:00,28.0,26.5,29.83,NW,313,8.0,8.0,94,0.00,,,0.00,0,Wunderground v.1.15,2013-12-21 08:30:00,
2013-12-21 02:35:00,28.0,26.5,29.82,NW,313,5.0,8.0,94,0.00,,,0.00,0,Wunderground v.1.15,2013-12-21 08:35:00,
2013-12-21 02:40:00,27.9,26.4,29.82,NW,314,3.0,3.0,94,0.00,,,0.00,0,Wunderground v.1.15,2013-12-21 08:40:00,
2013-12-21 02:45:00,27.9,26.4,29.83,NW,314,4.0,4.0,94,0.00,,,0.00,0,Wunderground v.1.15,2013-12-21 08:45:00,
2013-12-21 02:55:00,27.8,26.3,29.86,NW,314,5.0,8.0,94,0.00,,,0.00,0,Wunderground v.1.15,2013-12-21 08:55:00,
2013-12-21 03:00:00,27.8,26.3,29.87,NW,315,7.0,7.0,94,0.00,,,0.00,0,Wunderground v.1.15,2013-12-21 09:00:00,
2013-12-21 03:05:00,27.8,26.3,29.87,NW,313,8.0,10.0,94,0.00,,,0.00,0,Wunderground v.1.15,2013-12-21 09:05:00,
2013-12-21 03:10:00,27.8,26.3,29.85,NW,314,7.0,7.0,94,0.00,,,0.00,0,Wunderground v.1.15,2013-12-21 09:10:00,
2013-12-21 03:15:00,27.8,26.3,29.84,NW,314,6.0,7.0,94,0.00,,,0.00,0,Wunderground v.1.15,2013-12-21 09:15:00,
2013-12-21 03:20:00,27.8,26.3,29.83,NW,314,5.0,6.0,94,0.00,,,0.00,0,Wunderground v.1.15,2013-12-21 09:20:00,
2013-12-21 03:30:00,27.7,26.2,29.82,NW,315,4.0,4.0,94,0.00,,,0.00,0,Wunderground v.1.15,2013-12-21 09:30:00,
2013-12-21 03:35:00,27.7,26.2,29.81,NW,315,3.0,4.0,94,0.00,,,0.00,0,Wunderground v.1.15,2013-12-21 09:35:00,
2013-12-21 03:40:00,27.7,26.2,29.82,NW,315,3.0,3.0,94,0.00,,,0.00,0,Wunderground v.1.15,2013-12-21 09:40:00,
2013-12-21 03:45:00,27.6,26.1,29.81,NW,315,3.0,3.0,94,0.00,,,0.00,0,Wunderground v.1.15,2013-12-21 09:45:00,
2013-12-21 03:50:00,27.5,26.0,29.78,NW,316,3.0,3.0,94,0.00,,,0.00,0,Wunderground v.1.15,2013-12-21 09:50:00,
2013-12-21 04:00:00,27.5,26.0,29.81,NW,316,3.0,3.0,94,0.00,,,0.00,0,Wunderground v.1.15,2013-12-21 10:00:00,
2013-12-21 04:05:00,27.5,26.0,29.82,NW,316,3.0,3.0,94,0.00,,,0.00,0,Wunderground v.1.15,2013-12-21 10:05:00,
2013-12-21 04:15:00,27.6,26.1,29.85,NW,316,3.0,4.0,94,0.00,,,0.00,0,Wunderground v.1.15,2013-12-21 10:15:00,
2013-12-21 04:20:00,27.6,26.1,29.83,NW,316,3.0,3.0,94,0.00,,,0.00,0,Wunderground v.1.15,2013-12-21 10:20:00,
2013-12-21 04:25:00,27.6,26.1,29.85,NW,316,2.0,3.0,94,0.00,,,0.00,0,Wunderground v.1.15,2013-12-21 10:25:00,
2013-12-21 04:30:00,27.7,26.2,29.87,NW,316,3.0,6.0,94,0.00,,,0.00,0,Wunderground v.1.15,2013-12-21 10:30:00,
2013-12-21 04:35:00,27.7,26.2,29.88,NW,316,5.0,6.0,94,0.00,,,0.00,0,Wunderground v.1.15,2013-12-21 10:35:00,
2013-12-21 04:40:00,27.7,26.2,29.87,NW,316,6.0,7.0,94,0.00,,,0.00,0,Wunderground v.1.15,2013-12-21 10:40:00,
2013-12-21 04:45:00,27.7,26.2,29.86,NW,316,5.0,7.0,94,0.00,,,0.00,0,Wunderground v.1.15,2013-12-21 10:45:00,
2013-12-21 04:50:00,27.7,26.2,29.88,NW,316,4.0,4.0,94,0.00,,,0.00,0,Wunderground v.1.15,2013-12-21 10:50:00,
2013-12-21 04:55:00,27.6,26.1,29.87,NW,316,3.0,4.0,94,0.00,,,0.00,0,Wunderground v.1.15,2013-12-21 10:55:00,
2013-12-21 05:05:00,27.6,26.1,29.88,NW,316,3.0,3.0,94,0.00,,,0.00,0,Wunderground v.1.15,2013-12-21 11:05:00,
2013-12-21 05:10:00,27.6,26.1,29.87,NW,316,2.0,2.0,94,0.00,,,0.00,0,Wunderground v.1.15,2013-12-21 11:10:00,
2013-12-21 05:15:00,27.6,26.1,29.88,NW,316,2.0,2.0,94,0.00,,,0.00,0,Wunderground v.1.15,2013-12-21 11:15:00,
2013-12-21 05:20:00,27.6,26.4,29.87,NW,316,2.0,3.0,95,0.00,,,0.00,0,Wunderground v.1.15,2013-12-21 11:20:00,
2013-12-21 05:25:00,27.6,26.4,29.87,NW,316,3.0,3.0,95,0.00,,,0.00,0,Wunderground v.1.15,2013-12-21 11:25:00,
2013-12-21 05:30:00,27.6,26.4,29.86,NW,316,2.0,4.0,95,0.00,,,0.00,0,Wunderground v.1.15,2013-12-21 11:30:00,
2013-12-21 05:35:00,27.6,26.4,29.84,NW,316,2.0,4.0,95,0.00,,,0.00,0,Wunderground v.1.15,2013-12-21 11:35:00,
2013-12-21 05:40:00,27.6,26.4,29.84,NW,316,3.0,3.0,95,0.00,,,0.00,0,Wunderground v.1.15,2013-12-21 11:40:00,
2013-12-21 05:45:00,27.6,26.4,29.84,NW,316,2.0,3.0,95,0.00,,,0.00,0,Wunderground v.1.15,2013-12-21 11:45:00,
2013-12-21 05:50:00,27.5,26.3,29.84,NW,316,2.0,2.0,95,0.00,,,0.00,0,Wunderground v.1.15,2013-12-21 11:50:00,
2013-12-21 05:55:00,27.5,26.3,29.83,NW,316,3.0,3.0,95,0.00,,,0.00,0,Wunderground v.1.15,2013-12-21 11:55:00,
2013-12-21 06:00:00,27.5,26.3,29.83,NW,316,3.0,3.0,95,0.00,,,0.00,0,Wunderground v.1.15,2013-12-21 12:00:00,
2013-12-21 06:10:00,27.5,26.3,29.82,NW,316,3.0,3.0,95,0.00,,,0.00,0,Wunderground v.1.15,2013-12-21 12:10:00,
2013-12-21 06:15:00,27.5,26.3,29.83,NW,317,3.0,3.0,95,0.00,,,0.00,0,Wunderground v.1.15,2013-12-21 12:15:00,
2013-12-21 06:20:00,27.5,26.3,29.83,NW,317,3.0,3.0,95,0.00,,,0.00,0,Wunderground v.1.15,2013-12-21 12:20:00,
2013-12-21 06:25:00,27.5,26.3,29.82,NW,317,3.0,4.0,95,0.00,,,0.00,0,Wunderground v.1.15,2013-12-21 12:25:00,
2013-12-21 06:30:00,27.5,26.3,29.81,NW,319,3.0,3.0,95,0.00,,,0.00,0,Wunderground v.1.15,2013-12-21 12:30:00,
2013-12-21 06:35:00,27.5,26.3,29.82,NW,319,3.0,3.0,95,0.00,,,0.00,0,Wunderground v.1.15,2013-12-21 12:35:00,
2013-12-21 06:40:00,27.5,26.3,29.82,NW,320,3.0,3.0,95,0.00,,,0.00,0,Wunderground v.1.15,2013-12-21 12:40:00,
2013-12-21 06:45:00,27.4,26.2,29.83,NW,320,3.0,4.0,95,0.00,,,0.00,0,Wunderground v.1.15,2013-12-21 12:45:00,
2013-12-21 06:50:00,27.4,26.2,29.83,NW,322,3.0,3.0,95,0.00,,,0.00,0,Wunderground v.1.15,2013-12-21 12:50:00,
2013-12-21 06:55:00,27.4,26.2,29.82,NNW,327,4.0,5.0,95,0.00,,,0.00,0,Wunderground v.1.15,2013-12-21 12:55:00,
2013-12-21 07:00:00,27.4,26.2,29.82,NNW,334,4.0,6.0,95,0.00,,,0.00,0,Wunderground v.1.15,2013-12-21 13:00:00,
2013-12-21 07:10:00,27.3,26.1,29.83,NNW,342,4.0,4.0,95,0.00,,,0.00,0,Wunderground v.1.15,2013-12-21 13:10:00,
2013-12-21 07:20:00,27.3,26.1,29.82,NNW,343,4.0,4.0,95,0.00,,,0.00,0,Wunderground v.1.15,2013-12-21 13:20:00,
2013-12-21 07:25:00,27.3,26.1,29.83,NNW,343,3.0,4.0,95,0.00,,,0.00,0,Wunderground v.1.15,2013-12-21 13:25:00,
2013-12-21 07:30:00,27.4,26.2,29.83,NNW,343,2.0,2.0,95,0.00,,,0.00,0,Wunderground v.1.15,2013-12-21 13:30:00,
2013-12-21 07:35:00,27.4,26.2,29.83,NNW,343,2.0,2.0,95,0.00,,,0.00,0,Wunderground v.1.15,2013-12-21 13:35:00,
2013-12-21 07:40:00,27.4,26.2,29.82,NNW,343,2.0,2.0,95,0.00,,,0.00,0,Wunderground v.1.15,2013-12-21 13:40:00,
2013-12-21 07:45:00,27.3,26.1,29.83,NNW,343,2.0,3.0,95,0.00,,,0.00,5,Wunderground v.1.15,2013-12-21 13:45:00,
2013-12-21 07:50:00,27.3,26.1,29.83,NNW,343,2.0,3.0,95,0.00,,,0.00,7,Wunderground v.1.15,2013-12-21 13:50:00,
2013-12-21 07:55:00,27.4,26.2,29.84,NNW,343,2.0,3.0,95,0.00,,,0.00,9,Wunderground v.1.15,2013-12-21 13:55:00,
2013-12-21 08:00:00,27.4,26.2,29.86,NNW,343,2.0,2.0,95,0.00,,,0.00,9,Wunderground v.1.15,2013-12-21 14:00:00,
2013-12-21 08:10:00,27.4,26.2,29.86,NNW,343,1.0,1.0,95,0.00,,,0.00,14,Wunderground v.1.15,2013-12-21 14:10:00,
2013-12-21 08:15:00,27.5,26.3,29.86,NNW,343,1.0,1.0,95,0.00,,,0.00,14,Wunderground v.1.15,2013-12-21 14:15:00,
2013-12-21 08:25:00,27.5,26.3,29.86,NNW,343,3.0,3.0,95,0.00,,,0.00,18,Wunderground v.1.15,2013-12-21 14:25:00,
2013-12-21 08:30:00,27.5,26.3,29.86,NNW,343,2.0,2.0,95,0.00,,,0.00,21,Wunderground v.1.15,2013-12-21 14:30:00,
2013-12-21 08:35:00,27.5,26.3,29.86,NNW,343,1.0,2.0,95,0.00,,,0.00,19,Wunderground v.1.15,2013-12-21 14:35:00,
2013-12-21 08:40:00,27.6,26.4,29.86,NNW,343,1.0,3.0,95,0.00,,,0.00,19,Wunderground v.1.15,2013-12-21 14:40:00,
2013-12-21 08:45:00,27.6,26.4,29.86,NNW,343,2.0,3.0,95,0.00,,,0.00,21,Wunderground v.1.15,2013-12-21 14:45:00,
2013-12-21 08:55:00,27.6,26.4,29.87,NNW,343,1.0,1.0,95,0.00,,,0.00,26,Wunderground v.1.15,2013-12-21 14:55:00,
2013-12-21 09:00:00,27.7,26.5,29.87,NNW,343,2.0,2.0,95,0.00,,,0.00,26,Wunderground v.1.15,2013-12-21 15:00:00,
2013-12-21 09:05:00,27.8,26.6,29.88,NNW,343,1.0,2.0,95,0.00,,,0.00,26,Wunderground v.1.15,2013-12-21 15:05:00,
2013-12-21 09:10:00,27.8,26.6,29.87,NNW,343,1.0,2.0,95,0.00,,,0.00,30,Wunderground v.1.15,2013-12-21 15:10:00,
2013-12-21 09:15:00,27.9,26.7,29.87,NNW,343,2.0,3.0,95,0.00,,,0.00,33,Wunderground v.1.15,2013-12-21 15:15:00,
2013-12-21 09:20:00,27.9,26.7,29.86,NNW,343,2.0,4.0,95,0.00,,,0.00,33,Wunderground v.1.15,2013-12-21 15:20:00,
2013-12-21 09:30:00,28.0,26.8,29.85,NNW,343,2.0,3.0,95,0.00,,,0.00,42,Wunderground v.1.15,2013-12-21 15:30:00,
2013-12-21 09:35:00,28.0,26.8,29.86,NNW,343,2.0,3.0,95,0.00,,,0.00,40,Wunderground v.1.15,2013-12-21 15:35:00,
2013-12-21 09:40:00,28.0,26.8,29.86,NNW,343,2.0,3.0,95,0.00,,,0.00,42,Wunderground v.1.15,2013-12-21 15:40:00,
2013-12-21 09:45:00,28.1,26.6,29.88,NNW,343,2.0,3.0,94,0.00,,,0.00,39,Wunderground v.1.15,2013-12-21 15:45:00,
2013-12-21 09:50:00,28.1,26.6,29.88,NNW,343,2.0,2.0,94,0.00,,,0.00,40,Wunderground v.1.15,2013-12-21 15:50:00,
2013-12-21 10:00:00,28.3,26.8,29.88,NNW,343,2.0,2.0,94,0.00,,,0.00,42,Wunderground v.1.15,2013-12-21 16:00:00,
2013-12-21 10:05:00,28.3,26.8,29.87,NNW,343,2.0,2.0,94,0.00,,,0.00,47,Wunderground v.1.15,2013-12-21 16:05:00,
2013-12-21 10:10:00,28.3,26.8,29.86,NNW,343,2.0,2.0,94,0.00,,,0.00,54,Wunderground v.1.15,2013-12-21 16:10:00,
2013-12-21 10:15:00,28.4,26.9,29.86,NNW,343,1.0,2.0,94,0.00,,,0.00,65,Wunderground v.1.15,2013-12-21 16:15:00,
2013-12-21 10:20:00,28.4,26.9,29.86,NNW,343,2.0,3.0,94,0.00,,,0.00,65,Wunderground v.1.15,2013-12-21 16:20:00,
2013-12-21 10:25:00,28.4,26.9,29.86,NNW,343,2.0,3.0,94,0.00,,,0.00,60,Wunderground v.1.15,2013-12-21 16:25:00,
2013-12-21 10:35:00,28.5,27.0,29.86,NNW,343,2.0,3.0,94,0.00,,,0.00,60,Wunderground v.1.15,2013-12-21 16:35:00,
2013-12-21 10:40:00,28.4,26.9,29.86,NNW,343,2.0,2.0,94,0.00,,,0.00,60,Wunderground v.1.15,2013-12-21 16:40:00,
2013-12-21 10:45:00,28.4,26.9,29.86,NNW,343,2.0,2.0,94,0.00,,,0.00,53,Wunderground v.1.15,2013-12-21 16:45:00,
2013-12-21 10:50:00,28.5,27.0,29.86,NNW,343,2.0,3.0,94,0.00,,,0.00,49,Wunderground v.1.15,2013-12-21 16:50:00,
2013-12-21 10:55:00,28.5,27.0,29.86,NNW,343,2.0,3.0,94,0.00,,,0.00,46,Wunderground v.1.15,2013-12-21 16:55:00,
2013-12-21 11:05:00,28.4,26.9,29.85,NNW,343,2.0,2.0,94,0.00,,,0.00,46,Wunderground v.1.15,2013-12-21 17:05:00,
2013-12-21 11:10:00,28.5,27.0,29.84,NNW,343,2.0,2.0,94,0.00,,,0.00,47,Wunderground v.1.15,2013-12-21 17:10:00,
2013-12-21 11:15:00,28.5,27.0,29.84,NNW,343,1.0,4.0,94,0.00,,,0.00,46,Wunderground v.1.15,2013-12-21 17:15:00,
2013-12-21 11:20:00,28.5,27.0,29.85,NNW,343,2.0,2.0,94,0.00,,,0.00,33,Wunderground v.1.15,2013-12-21 17:20:00,
2013-12-21 11:25:00,28.5,27.0,29.85,NNW,343,2.0,2.0,94,0.00,,,0.00,39,Wunderground v.1.15,2013-12-21 17:25:00,
2013-12-21 11:30:00,28.6,27.1,29.86,NNW,343,1.0,2.0,94,0.00,,,0.00,40,Wunderground v.1.15,2013-12-21 17:30:00,
2013-12-21 11:40:00,28.8,27.3,29.86,NNW,343,1.0,2.0,94,0.00,,,0.00,54,Wunderground v.1.15,2013-12-21 17:40:00,
2013-12-21 11:45:00,28.9,27.4,29.85,NNW,343,1.0,2.0,94,0.00,,,0.00,58,Wunderground v.1.15,2013-12-21 17:45:00,
2013-12-21 11:50:00,29.0,27.7,29.85,NNW,343,1.0,2.0,95,0.00,,,0.00,62,Wunderground v.1.15,2013-12-21 17:50:00,
2013-12-21 11:55:00,29.1,27.8,29.85,NNW,343,1.0,2.0,95,0.00,,,0.00,69,Wunderground v.1.15,2013-12-21 17:55:00,
2013-12-21 12:00:00,29.2,27.9,29.84,NNW,343,2.0,2.0,95,0.00,,,0.00,83,Wunderground v.1.15,2013-12-21 18:00:00,
2013-12-21 12:05:00,29.3,28.0,29.84,NNW,343,2.0,3.0,95,0.00,,,0.00,77,Wunderground v.1.15,2013-12-21 18:05:00,
2013-12-21 12:10:00,29.4,28.1,29.84,NNW,343,2.0,2.0,95,0.00,,,0.00,77,Wunderground v.1.15,2013-12-21 18:10:00,
2013-12-21 12:15:00,29.4,27.9,29.84,NNW,343,2.0,2.0,94,0.00,,,0.00,79,Wunderground v.1.15,2013-12-21 18:15:00,
2013-12-21 12:20:00,29.5,28.2,29.83,NNW,343,2.0,4.0,95,0.00,,,0.00,86,Wunderground v.1.15,2013-12-21 18:20:00,
2013-12-21 12:25:00,29.6,28.1,29.82,NNW,343,2.0,4.0,94,0.00,,,0.00,65,Wunderground v.1.15,2013-12-21 18:25:00,
2013-12-21 12:30:00,29.6,28.1,29.82,NNW,343,2.0,2.0,94,0.00,,,0.00,76,Wunderground v.1.15,2013-12-21 18:30:00,
2013-12-21 12:35:00,29.6,28.3,29.82,NNW,343,2.0,2.0,95,0.00,,,0.00,79,Wunderground v.1.15,2013-12-21 18:35:00,
2013-12-21 12:45:00,29.6,28.1,29.82,NNW,343,3.0,4.0,94,0.00,,,0.00,90,Wunderground v.1.15,2013-12-21 18:45:00,
2013-12-21 12:50:00,29.6,28.1,29.81,NNW,343,3.0,5.0,94,0.00,,,0.00,102,Wunderground v.1.15,2013-12-21 18:50:00,
2013-12-21 12:55:00,29.6,28.1,29.80,NNW,343,4.0,5.0,94,0.00,,,0.00,130,Wunderground v.1.15,2013-12-21 18:55:00,
2013-12-21 13:00:00,29.8,28.3,29.79,NNW,343,3.0,3.0,94,0.00,,,0.00,91,Wunderground v.1.15,2013-12-21 19:00:00,
2013-12-21 13:05:00,29.8,28.3,29.79,NNW,344,3.0,3.0,94,0.00,,,0.00,83,Wunderground v.1.15,2013-12-21 19:05:00,
2013-12-21 13:15:00,29.7,28.2,29.78,NNW,347,3.0,4.0,94,0.00,,,0.00,65,Wunderground v.1.15,2013-12-21 19:15:00,
2013-12-21 13:20:00,29.7,28.2,29.77,North,350,3.0,3.0,94,0.00,,,0.00,63,Wunderground v.1.15,2013-12-21 19:20:00,
2013-12-21 13:25:00,29.7,28.2,29.77,North,351,3.0,4.0,94,0.00,,,0.00,69,Wunderground v.1.15,2013-12-21 19:25:00,
2013-12-21 13:30:00,29.7,28.2,29.77,North,351,3.0,3.0,94,0.00,,,0.00,62,Wunderground v.1.15,2013-12-21 19:30:00,
2013-12-21 13:35:00,29.7,28.2,29.77,North,355,3.0,6.0,94,0.00,,,0.00,67,Wunderground v.1.15,2013-12-21 19:35:00,
2013-12-21 13:40:00,29.7,28.2,29.77,North,355,3.0,6.0,94,0.00,,,0.00,60,Wunderground v.1.15,2013-12-21 19:40:00,
2013-12-21 13:50:00,29.6,28.1,29.77,North,360,4.0,5.0,94,0.00,,,0.00,46,Wunderground v.1.15,2013-12-21 19:50:00,
2013-12-21 13:55:00,29.6,28.1,29.76,North,360,3.0,5.0,94,0.00,,,0.00,51,Wunderground v.1.15,2013-12-21 19:55:00,
2013-12-21 14:00:00,29.6,28.1,29.76,North,360,3.0,5.0,94,0.00,,,0.00,46,Wunderground v.1.15,2013-12-21 20:00:00,
2013-12-21 14:05:00,29.6,28.1,29.76,North,360,3.0,5.0,94,0.00,,,0.00,46,Wunderground v.1.15,2013-12-21 20:05:00,
2013-12-21 14:10:00,29.6,28.1,29.76,North,360,3.0,3.0,94,0.00,,,0.00,44,Wunderground v.1.15,2013-12-21 20:10:00,
2013-12-21 14:20:00,29.6,28.1,29.75,North,360,3.0,3.0,94,0.00,,,0.00,44,Wunderground v.1.15,2013-12-21 20:20:00,
2013-12-21 14:25:00,29.7,28.2,29.75,North,360,3.0,3.0,94,0.00,,,0.00,42,Wunderground v.1.15,2013-12-21 20:25:00,
2013-12-21 14:30:00,29.6,28.1,29.76,North,360,3.0,3.0,94,0.00,,,0.00,54,Wunderground v.1.15,2013-12-21 20:30:00,
2013-12-21 14:35:00,29.6,28.1,29.77,North,360,3.0,3.0,94,0.00,,,0.00,58,Wunderground v.1.15,2013-12-21 20:35:00,
2013-12-21 14:40:00,29.7,28.2,29.76,North,360,3.0,3.0,94,0.00,,,0.00,56,Wunderground v.1.15,2013-12-21 20:40:00,
2013-12-21 14:45:00,29.7,28.2,29.76,North,360,3.0,3.0,94,0.00,,,0.00,47,Wunderground v.1.15,2013-12-21 20:45:00,
2013-12-21 14:55:00,29.8,28.3,29.77,North,9,3.0,6.0,94,0.00,,,0.00,49,Wunderground v.1.15,2013-12-21 20:55:00,
2013-12-21 15:00:00,29.8,28.3,29.78,North,360,3.0,3.0,94,0.00,,,0.00,39,Wunderground v.1.15,2013-12-21 21:00:00,
2013-12-21 15:05:00,29.9,28.4,29.78,North,360,3.0,3.0,94,0.00,,,0.00,28,Wunderground v.1.15,2013-12-21 21:05:00,
2013-12-21 15:10:00,29.9,28.4,29.78,North,360,2.0,3.0,94,0.00,,,0.00,23,Wunderground v.1.15,2013-12-21 21:10:00,
2013-12-21 15:15:00,29.9,28.4,29.78,North,360,2.0,3.0,94,0.00,,,0.00,28,Wunderground v.1.15,2013-12-21 21:15:00,
2013-12-21 15:25:00,29.9,28.4,29.78,North,9,3.0,3.0,94,0.00,,,0.00,23,Wunderground v.1.15,2013-12-21 21:25:00,
2013-12-21 15:30:00,30.0,28.5,29.78,North,9,2.0,2.0,94,0.00,,,0.00,19,Wunderground v.1.15,2013-12-21 21:30:00,
2013-12-21 15:35:00,29.9,28.4,29.78,North,9,3.0,3.0,94,0.00,,,0.00,23,Wunderground v.1.15,2013-12-21 21:35:00,
2013-12-21 15:40:00,29.9,28.4,29.77,North,5,3.0,3.0,94,0.00,,,0.00,23,Wunderground v.1.15,2013-12-21 21:40:00,
2013-12-21 15:45:00,29.9,28.4,29.77,North,5,3.0,4.0,94,0.00,,,0.00,18,Wunderground v.1.15,2013-12-21 21:45:00,
2013-12-21 15:50:00,29.9,28.4,29.76,North,5,3.0,4.0,94,0.00,,,0.00,16,Wunderground v.1.15,2013-12-21 21:50:00,
2013-12-21 16:00:00,29.7,28.2,29.76,North,5,3.0,3.0,94,0.00,,,0.00,12,Wunderground v.1.15,2013-12-21 22:00:00,
2013-12-21 16:05:00,29.7,28.2,29.76,North,5,2.0,3.0,94,0.00,,,0.00,7,Wunderground v.1.15,2013-12-21 22:05:00,
2013-12-21 16:10:00,29.8,28.3,29.76,North,5,2.0,3.0,94,0.00,,,0.00,5,Wunderground v.1.15,2013-12-21 22:10:00,
2013-12-21 16:20:00,29.8,28.3,29.76,North,5,3.0,4.0,94,0.00,,,0.00,0,Wunderground v.1.15,2013-12-21 22:20:00,
2013-12-21 16:25:00,29.8,28.3,29.75,North,5,3.0,7.0,94,0.00,,,0.00,0,Wunderground v.1.15,2013-12-21 22:25:00,
2013-12-21 16:30:00,29.7,28.2,29.75,North,5,4.0,4.0,94,0.00,,,0.00,0,Wunderground v.1.15,2013-12-21 22:30:00,
2013-12-21 16:35:00,29.7,28.4,29.75,North,5,4.0,4.0,95,0.00,,,0.00,0,Wunderground v.1.15,2013-12-21 22:35:00,
2013-12-21 16:40:00,29.7,28.4,29.75,North,5,3.0,3.0,95,0.00,,,0.00,0,Wunderground v.1.15,2013-12-21 22:40:00,
2013-12-21 16:45:00,29.6,28.1,29.75,North,5,3.0,3.0,94,0.00,,,0.00,0,Wunderground v.1.15,2013-12-21 22:45:00,
2013-12-21 16:50:00,29.6,28.1,29.75,North,5,3.0,6.0,94,0.00,,,0.00,0,Wunderground v.1.15,2013-12-21 22:50:00,
2013-12-21 16:55:00,29.6,28.1,29.75,North,9,2.0,7.0,94,0.00,,,0.00,0,Wunderground v.1.15,2013-12-21 22:55:00,
2013-12-21 17:05:00,29.6,28.1,29.75,NNE,22,3.0,4.0,94,0.00,,,0.00,0,Wunderground v.1.15,2013-12-21 23:05:00,
2013-12-21 17:10:00,29.5,28.2,29.75,NNE,23,3.0,3.0,95,0.00,,,0.00,0,Wunderground v.1.15,2013-12-21 23:10:00,
2013-12-21 17:15:00,29.6,28.3,29.75,NNE,25,3.0,3.0,95,0.00,,,0.00,0,Wunderground v.1.15,2013-12-21 23:15:00,
2013-12-21 17:20:00,29.6,28.1,29.75,NNE,27,3.0,3.0,94,0.00,,,0.00,0,Wunderground v.1.15,2013-12-21 23:20:00,
2013-12-21 17:25:00,29.6,28.1,29.75,NNE,28,3.0,3.0,94,0.00,,,0.00,0,Wunderground v.1.15,2013-12-21 23:25:00,
2013-12-21 17:30:00,29.6,28.1,29.75,NE,40,3.0,3.0,94,0.00,,,0.00,0,Wunderground v.1.15,2013-12-21 23:30:00,
2013-12-21 17:35:00,29.6,28.1,29.75,NE,42,3.0,4.0,94,0.00,,,0.00,0,Wunderground v.1.15,2013-12-21 23:35:00,
2013-12-21 17:40:00,29.6,28.3,29.75,NE,43,3.0,3.0,95,0.00,,,0.00,0,Wunderground v.1.15,2013-12-21 23:40:00,
2013-12-21 17:45:00,29.7,28.4,29.75,NE,41,3.0,3.0,95,0.00,,,0.00,0,Wunderground v.1.15,2013-12-21 23:45:00,
2013-12-21 17:50:00,29.6,28.3,29.75,NE,42,3.0,3.0,95,0.00,,,0.00,0,Wunderground v.1.15,2013-12-21 23:50:00,
2013-12-21 17:55:00,29.6,28.3,29.74,NE,46,3.0,4.0,95,0.00,,,0.00,0,Wunderground v.1.15,2013-12-21 23:55:00,
2013-12-21 18:00:00,29.6,28.3,29.74,NE,46,3.0,4.0,95,0.00,,,0.00,0,Wunderground v.1.15,2013-12-22 00:00:00,
2013-12-21 18:10:00,29.7,28.4,29.74,NE,46,1.0,1.0,95,0.00,,,0.00,0,Wunderground v.1.15,2013-12-22 00:10:00,
2013-12-21 18:15:00,29.8,28.5,29.74,NE,46,1.0,4.0,95,0.00,,,0.00,0,Wunderground v.1.15,2013-12-22 00:15:00,
2013-12-21 18:20:00,29.8,28.5,29.74,NE,46,2.0,4.0,95,0.00,,,0.00,0,Wunderground v.1.15,2013-12-22 00:20:00,
2013-12-21 18:25:00,29.8,28.5,29.74,NE,46,2.0,5.0,95,0.00,,,0.00,0,Wunderground v.1.15,2013-12-22 00:25:00,
2013-12-21 18:30:00,29.9,28.6,29.73,NE,45,3.0,3.0,95,0.00,,,0.00,0,Wunderground v.1.15,2013-12-22 00:30:00,
2013-12-21 18:35:00,30.0,28.7,29.73,NE,44,3.0,3.0,95,0.00,,,0.00,0,Wunderground v.1.15,2013-12-22 00:35:00,
2013-12-21 18:40:00,30.1,28.8,29.73,NE,39,3.0,3.0,95,0.00,,,0.00,0,Wunderground v.1.15,2013-12-22 00:40:00,
2013-12-21 18:45:00,30.1,28.8,29.73,NE,38,3.0,3.0,95,0.00,,,0.00,0,Wunderground v.1.15,2013-12-22 00:45:00,
2013-12-21 18:50:00,30.1,28.8,29.73,NE,37,3.0,3.0,95,0.00,,,0.00,0,Wunderground v.1.15,2013-12-22 00:50:00,
2013-12-21 18:55:00,30.1,28.8,29.73,NE,37,3.0,3.0,95,0.00,,,0.00,0,Wunderground v.1.15,2013-12-22 00:55:00,
2013-12-21 19:00:00,30.2,28.9,29.72,NE,37,2.0,2.0,95,0.00,,,0.00,0,Wunderground v.1.15,2013-12-22 01:00:00,
2013-12-21 19:10:00,30.2,28.9,29.73,NNE,17,2.0,3.0,95,0.00,,,0.00,0,Wunderground v.1.15,2013-12-22 01:10:00,
2013-12-21 19:15:00,30.2,28.9,29.73,NNE,17,2.0,4.0,95,0.00,,,0.00,0,Wunderground v.1.15,2013-12-22 01:15:00,
2013-12-21 19:20:00,30.2,28.9,29.72,NNE,15,3.0,4.0,95,0.00,,,0.00,0,Wunderground v.1.15,2013-12-22 01:20:00,
2013-12-21 19:25:00,30.3,29.0,29.72,NNE,12,3.0,6.0,95,0.00,,,0.00,0,Wunderground v.1.15,2013-12-22 01:25:00,
2013-12-21 19:30:00,30.3,29.0,29.71,NNE,15,3.0,3.0,95,0.00,,,0.00,0,Wunderground v.1.15,2013-12-22 01:30:00,
2013-12-21 19:35:00,30.3,29.3,29.72,North,11,3.0,3.0,96,0.00,,,0.00,0,Wunderground v.1.15,2013-12-22 01:35:00,
2013-12-21 19:40:00,30.3,29.3,29.72,North,9,3.0,3.0,96,0.00,,,0.00,0,Wunderground v.1.15,2013-12-22 01:40:00,
2013-12-21 19:45:00,30.4,29.1,29.71,North,9,3.0,4.0,95,0.00,,,0.00,0,Wunderground v.1.15,2013-12-22 01:45:00,
2013-12-21 19:50:00,30.3,29.3,29.68,North,9,3.0,4.0,96,0.00,,,0.00,0,Wunderground v.1.15,2013-12-22 01:50:00,
2013-12-21 19:55:00,30.3,29.3,29.67,NNE,33,3.0,4.0,96,0.00,,,0.00,0,Wunderground v.1.15,2013-12-22 01:55:00,
2013-12-21 20:00:00,30.3,29.3,29.68,NNE,33,3.0,4.0,96,0.00,,,0.00,0,Wunderground v.1.15,2013-12-22 02:00:00,
2013-12-21 20:10:00,30.3,29.3,29.69,North,360,4.0,4.0,96,0.00,,,0.00,0,Wunderground v.1.15,2013-12-22 02:10:00,
2013-12-21 20:20:00,30.3,29.3,29.69,North,350,4.0,4.0,96,0.00,,,0.00,0,Wunderground v.1.15,2013-12-22 02:20:00,
2013-12-21 20:25:00,30.4,29.4,29.66,North,5,4.0,4.0,96,0.00,,,0.00,0,Wunderground v.1.15,2013-12-22 02:25:00,
2013-12-21 20:30:00,30.3,29.3,29.66,North,9,4.0,4.0,96,0.00,,,0.00,0,Wunderground v.1.15,2013-12-22 02:30:00,
2013-12-21 20:35:00,30.4,29.4,29.68,North,355,3.0,4.0,96,0.00,,,0.00,0,Wunderground v.1.15,2013-12-22 02:35:00,
2013-12-21 20:40:00,30.4,29.4,29.66,North,360,3.0,4.0,96,0.00,,,0.00,0,Wunderground v.1.15,2013-12-22 02:40:00,
2013-12-21 20:45:00,30.5,29.5,29.68,North,360,2.0,4.0,96,0.00,,,0.00,0,Wunderground v.1.15,2013-12-22 02:45:00,
2013-12-21 20:55:00,30.6,29.6,29.67,NNE,17,3.0,3.0,96,0.00,,,0.00,0,Wunderground v.1.15,2013-12-22 02:55:00,
2013-12-21 21:00:00,30.6,29.6,29.66,NNE,25,3.0,3.0,96,0.00,,,0.00,0,Wunderground v.1.15,2013-12-22 03:00:00,
2013-12-21 21:05:00,30.6,29.6,29.66,NNE,28,3.0,3.0,96,0.00,,,0.00,0,Wunderground v.1.15,2013-12-22 03:05:00,
2013-12-21 21:10:00,30.6,29.6,29.66,NNE,28,3.0,3.0,96,0.00,,,0.00,0,Wunderground v.1.15,2013-12-22 03:10:00,
2013-12-21 21:15:00,30.7,29.7,29.66,NNE,28,2.0,3.0,96,0.00,,,0.00,0,Wunderground v.1.15,2013-12-22 03:15:00,
2013-12-21 21:25:00,30.8,29.8,29.64,NNE,26,2.0,3.0,96,0.00,,,0.00,0,Wunderground v.1.15,2013-12-22 03:25:00,
2013-12-21 21:30:00,30.8,29.8,29.63,NNE,28,2.0,2.0,96,0.00,,,0.00,0,Wunderground v.1.15,2013-12-22 03:30:00,
2013-12-21 21:35:00,30.8,29.8,29.64,NNE,28,2.0,2.0,96,0.00,,,0.00,0,Wunderground v.1.15,2013-12-22 03:35:00,
2013-12-21 21:40:00,30.9,29.9,29.64,NNE,27,2.0,4.0,96,0.00,,,0.00,0,Wunderground v.1.15,2013-12-22 03:40:00,
2013-12-21 21:45:00,31.0,30.0,29.65,NNE,27,2.0,4.0,96,0.00,,,0.00,0,Wunderground v.1.15,2013-12-22 03:45:00,
2013-12-21 21:50:00,31.0,30.0,29.66,NNE,27,2.0,3.0,96,0.00,,,0.00,0,Wunderground v.1.15,2013-12-22 03:50:00,
2013-12-21 22:00:00,31.2,30.2,29.66,NNE,28,3.0,3.0,96,0.00,,,0.00,0,Wunderground v.1.15,2013-12-22 04:00:00,
2013-12-21 22:05:00,31.2,30.2,29.66,NNE,28,2.0,3.0,96,0.00,,,0.00,0,Wunderground v.1.15,2013-12-22 04:05:00,
2013-12-21 22:10:00,31.3,30.3,29.65,NNE,28,1.0,2.0,96,0.00,,,0.00,0,Wunderground v.1.15,2013-12-22 04:10:00,
2013-12-21 22:15:00,31.3,30.3,29.64,NNE,28,2.0,2.0,96,0.00,,,0.00,0,Wunderground v.1.15,2013-12-22 04:15:00,
2013-12-21 22:20:00,31.4,30.4,29.65,NNE,28,2.0,2.0,96,0.00,,,0.00,0,Wunderground v.1.15,2013-12-22 04:20:00,
2013-12-21 22:30:00,31.4,30.4,29.67,NNE,28,2.0,2.0,96,0.00,,,0.00,0,Wunderground v.1.15,2013-12-22 04:30:00,
2013-12-21 22:35:00,31.5,30.5,29.67,NNE,28,2.0,2.0,96,0.00,,,0.00,0,Wunderground v.1.15,2013-12-22 04:35:00,
2013-12-21 22:40:00,31.5,30.5,29.67,NNE,28,1.0,2.0,96,0.00,,,0.00,0,Wunderground v.1.15,2013-12-22 04:40:00,
2013-12-21 22:45:00,31.6,30.6,29.67,NNE,28,2.0,3.0,96,0.00,,,0.00,0,Wunderground v.1.15,2013-12-22 04:45:00,
2013-12-21 22:50:00,31.7,30.7,29.67,NNE,28,3.0,3.0,96,0.00,,,0.00,0,Wunderground v.1.15,2013-12-22 04:50:00,
2013-12-21 22:55:00,31.7,30.7,29.66,NNE,28,3.0,3.0,96,0.00,,,0.00,0,Wunderground v.1.15,2013-12-22 04:55:00,
2013-12-21 23:05:00,31.7,30.7,29.66,NNE,28,2.0,4.0,96,0.00,,,0.00,0,Wunderground v.1.15,2013-12-22 05:05:00,
2013-12-21 23:10:00,31.8,30.8,29.66,NNE,28,1.0,1.0,96,0.00,,,0.00,0,Wunderground v.1.15,2013-12-22 05:10:00,
2013-12-21 23:15:00,31.8,30.8,29.66,NNE,28,2.0,2.0,96,0.00,,,0.00,0,Wunderground v.1.15,2013-12-22 05:15:00,
2013-12-21 23:20:00,31.8,30.8,29.66,NNE,28,2.0,2.0,96,0.00,,,0.00,0,Wunderground v.1.15,2013-12-22 05:20:00,
2013-12-21 23:25:00,31.8,30.8,29.66,NNE,28,1.0,2.0,96,0.00,,,0.00,0,Wunderground v.1.15,2013-12-22 05:25:00,
2013-12-21 23:35:00,31.9,30.9,29.66,NNE,28,1.0,3.0,96,0.00,,,0.00,0,Wunderground v.1.15,2013-12-22 05:35:00,
2013-12-21 23:40:00,31.9,30.9,29.66,NNE,28,1.0,2.0,96,0.00,,,0.00,0,Wunderground v.1.15,2013-12-22 05:40:00,
2013-12-21 23:45:00,31.9,30.9,29.67,NNE,28,1.0,2.0,96,0.00,,,0.00,0,Wunderground v.1.15,2013-12-22 05:45:00,
2013-12-21 23:50:00,31.9,30.9,29.67,NNE,28,1.0,1.0,96,0.00,,,0.00,0,Wunderground v.1.15,2013-12-22 05:50:00,
2013-12-21 23:55:00,31.9,30.9,29.67,NNE,28,1.0,2.0,96,0.00,,,0.00,0,Wunderground v.1.15,2013-12-22 05:55:00,